Previsão horária em Al Hudaydah

Hoje, 22 Junho, Terça-feira

Tempo Temperatura Precipitação Vento Pressão Humidade
00:00 +32°C° 0 mm 2 m/s 748 mmHg 68%
01:00 +32°C° 0 mm 2 m/s 748 mmHg 71%
02:00 +32°C° 0 mm 2 m/s 747 mmHg 73%
03:00 +32°C° 0 mm 1 m/s 747 mmHg 76%
04:00 +32°C° 0 mm 1 m/s 747 mmHg 78%
05:00 +31°C° 0 mm 1 m/s 748 mmHg 79%
06:00 +31°C° 0 mm 1 m/s 748 mmHg 80%
07:00 +34°C° 0 mm 2 m/s 749 mmHg 74%
08:00 +35°C° 0 mm 3 m/s 749 mmHg 67%
09:00 +36°C° 0 mm 3 m/s 749 mmHg 59%
10:00 +38°C° 0 mm 4 m/s 749 mmHg 53%
11:00 +40°C° 0 mm 4 m/s 748 mmHg 48%
12:00 +42°C° 0 mm 5 m/s 748 mmHg 42%
13:00 +41°C° 0 mm 6 m/s 747 mmHg 43%
14:00 +41°C° 0 mm 6 m/s 747 mmHg 44%
15:00 +41°C° 0 mm 7 m/s 746 mmHg 45%
16:00 +40°C° 0 mm 6 m/s 747 mmHg 49%
17:00 +38°C° 0 mm 4 m/s 747 mmHg 52%
18:00 +36°C° 0 mm 3 m/s 747 mmHg 56%
19:00 +36°C° 0 mm 2 m/s 748 mmHg 58%
20:00 +34°C° 0 mm 1 m/s 748 mmHg 61%
21:00 +32°C° 0 mm 0 m/s 748 mmHg 63%
22:00 +34°C° 0 mm 1 m/s 748 mmHg 64%
23:00 +33°C° 0 mm 1 m/s 748 mmHg 65%

Amanhã, 23 Junho, Quarta-feira

Tempo Temperatura Precipitação Vento Pressão Humidade
00:00 +34°C° 0 mm 2 m/s 747 mmHg 66%
01:00 +33°C° 0 mm 1 m/s 747 mmHg 67%
02:00 +33°C° 0 mm 1 m/s 747 mmHg 68%
03:00 +31°C° 0 mm 0 m/s 747 mmHg 69%
04:00 +32°C° 0 mm 1 m/s 747 mmHg 70%
05:00 +32°C° 0 mm 2 m/s 748 mmHg 71%
06:00 +33°C° 0 mm 3 m/s 748 mmHg 72%
07:00 +34°C° 0 mm 4 m/s 749 mmHg 65%
08:00 +36°C° 0 mm 4 m/s 749 mmHg 58%
09:00 +38°C° 0 mm 4 m/s 749 mmHg 51%
10:00 +40°C° 0 mm 5 m/s 749 mmHg 45%
11:00 +41°C° 0 mm 6 m/s 749 mmHg 40%
12:00 +44°C° 0 mm 7 m/s 748 mmHg 34%
13:00 +43°C° 0 mm 7 m/s 748 mmHg 34%
14:00 +43°C° 0 mm 7 m/s 747 mmHg 34%
15:00 +43°C° 0 mm 8 m/s 747 mmHg 33%
16:00 +41°C° 0.1 mm 6 m/s 747 mmHg 34%
17:00 +40°C° 0.1 mm 4 m/s 747 mmHg 34%
18:00 +38°C° 0.1 mm 2 m/s 748 mmHg 34%
19:00 +38°C° 0 mm 2 m/s 748 mmHg 36%
20:00 +36°C° 0 mm 1 m/s 748 mmHg 37%
21:00 +35°C° 0 mm 1 m/s 748 mmHg 39%
22:00 +35°C° 0 mm 1 m/s 748 mmHg 39%
23:00 +34°C° 0 mm 1 m/s 747 mmHg 40%

Depois de amanhã, 24 Junho, Quinta-feira

Tempo Temperatura Precipitação Vento Pressão Humidade
00:00 +34°C° 0 mm 1 m/s 747 mmHg 40%
01:00 +34°C° 0 mm 1 m/s 747 mmHg 43%
02:00 +33°C° 0 mm 1 m/s 747 mmHg 45%
03:00 +32°C° 0 mm 1 m/s 747 mmHg 48%
04:00 +32°C° 0 mm 2 m/s 747 mmHg 48%
05:00 +32°C° 0 mm 2 m/s 748 mmHg 49%
06:00 +33°C° 0 mm 3 m/s 748 mmHg 49%
07:00 +35°C° 0 mm 3 m/s 749 mmHg 46%
08:00 +36°C° 0 mm 3 m/s 749 mmHg 44%
09:00 +38°C° 0 mm 3 m/s 749 mmHg 41%
10:00 +40°C° 0 mm 4 m/s 749 mmHg 38%
11:00 +41°C° 0 mm 4 m/s 749 mmHg 35%
12:00 +43°C° 0 mm 4 m/s 748 mmHg 31%
13:00 +43°C° 0 mm 5 m/s 748 mmHg 31%
14:00 +44°C° 0 mm 6 m/s 747 mmHg 32%
15:00 +42°C° 0 mm 6 m/s 747 mmHg 32%
16:00 +41°C° 0 mm 5 m/s 747 mmHg 35%
17:00 +40°C° 0 mm 4 m/s 747 mmHg 39%
18:00 +38°C° 0 mm 3 m/s 747 mmHg 43%
19:00 +37°C° 0 mm 3 m/s 748 mmHg 49%
20:00 +36°C° 0 mm 4 m/s 748 mmHg 56%
21:00 +35°C° 0 mm 4 m/s 748 mmHg 62%
22:00 +35°C° 0 mm 3 m/s 748 mmHg 62%
23:00 +35°C° 0 mm 2 m/s 748 mmHg 61%

25 Junho, Sexta-feira

Tempo Temperatura Precipitação Vento Pressão Humidade
00:00 +35°C° 0 mm 2 m/s 748 mmHg 60%
01:00 +34°C° 0 mm 2 m/s 747 mmHg 61%
02:00 +33°C° 0 mm 1 m/s 747 mmHg 62%
03:00 +33°C° 0 mm 1 m/s 747 mmHg 63%
04:00 +32°C° 0 mm 1 m/s 747 mmHg 64%
05:00 +32°C° 0 mm 2 m/s 748 mmHg 65%
06:00 +32°C° 0 mm 2 m/s 748 mmHg 66%
07:00 +34°C° 0 mm 3 m/s 749 mmHg 61%
08:00 +36°C° 0 mm 3 m/s 749 mmHg 57%
09:00 +37°C° 0 mm 4 m/s 749 mmHg 52%
10:00 +38°C° 0 mm 4 m/s 749 mmHg 48%
11:00 +41°C° 0 mm 4 m/s 749 mmHg 43%
12:00 +42°C° 0 mm 4 m/s 748 mmHg 39%
13:00 +42°C° 0 mm 5 m/s 748 mmHg 37%
14:00 +42°C° 0 mm 5 m/s 747 mmHg 36%
15:00 +42°C° 0 mm 6 m/s 746 mmHg 34%
16:00 +40°C° 0.2 mm 5 m/s 747 mmHg 38%
17:00 +37°C° 0.2 mm 4 m/s 747 mmHg 42%
18:00 +35°C° 0.2 mm 3 m/s 747 mmHg 46%
19:00 +35°C° 0 mm 3 m/s 747 mmHg 45%
20:00 +35°C° 0 mm 2 m/s 747 mmHg 45%
21:00 +34°C° 0 mm 1 m/s 747 mmHg 44%
22:00 +34°C° 0 mm 1 m/s 747 mmHg 46%
23:00 +33°C° 0 mm 1 m/s 747 mmHg 48%

26 Junho, Sábado

Tempo Temperatura Precipitação Vento Pressão Humidade
00:00 +33°C° 0 mm 1 m/s 747 mmHg 50%
01:00 +32°C° 0 mm 1 m/s 746 mmHg 53%
02:00 +32°C° 0 mm 1 m/s 746 mmHg 56%
03:00 +32°C° 0 mm 1 m/s 746 mmHg 59%
04:00 +31°C° 0 mm 2 m/s 746 mmHg 61%
05:00 +31°C° 0 mm 2 m/s 747 mmHg 63%
06:00 +31°C° 0 mm 2 m/s 747 mmHg 65%
07:00 +34°C° 0 mm 2 m/s 748 mmHg 59%
08:00 +35°C° 0 mm 2 m/s 748 mmHg 54%
09:00 +37°C° 0 mm 3 m/s 749 mmHg 48%
10:00 +38°C° 0 mm 3 m/s 748 mmHg 42%
11:00 +41°C° 0 mm 4 m/s 748 mmHg 36%
12:00 +43°C° 0 mm 5 m/s 747 mmHg 30%
13:00 +43°C° 0 mm 5 m/s 747 mmHg 30%
14:00 +44°C° 0 mm 6 m/s 746 mmHg 31%
15:00 +42°C° 0 mm 6 m/s 746 mmHg 32%
16:00 +41°C° 0 mm 5 m/s 746 mmHg 36%
17:00 +40°C° 0 mm 5 m/s 746 mmHg 39%
18:00 +37°C° 0 mm 4 m/s 746 mmHg 42%
19:00 +36°C° 0 mm 3 m/s 746 mmHg 46%
20:00 +36°C° 0 mm 2 m/s 747 mmHg 49%
21:00 +34°C° 0 mm 1 m/s 747 mmHg 52%
22:00 +34°C° 0 mm 1 m/s 746 mmHg 52%
23:00 +33°C° 0 mm 1 m/s 746 mmHg 52%

27 Junho, Domingo

Tempo Temperatura Precipitação Vento Pressão Humidade
00:00 +33°C° 0 mm 1 m/s 746 mmHg 51%
01:00 +33°C° 0 mm 1 m/s 746 mmHg 54%
02:00 +32°C° 0 mm 1 m/s 746 mmHg 57%
03:00 +32°C° 0 mm 1 m/s 745 mmHg 59%
04:00 +31°C° 0 mm 1 m/s 746 mmHg 60%
05:00 +31°C° 0 mm 2 m/s 747 mmHg 61%
06:00 +31°C° 0 mm 3 m/s 747 mmHg 62%
07:00 +34°C° 0 mm 3 m/s 748 mmHg 55%
08:00 +36°C° 0 mm 4 m/s 748 mmHg 48%
09:00 +38°C° 0 mm 4 m/s 749 mmHg 41%
10:00 +41°C° 0 mm 5 m/s 748 mmHg 35%
11:00 +42°C° 0 mm 6 m/s 748 mmHg 30%
12:00 +45°C° 0 mm 7 m/s 747 mmHg 25%
13:00 +45°C° 0 mm 7 m/s 747 mmHg 25%
14:00 +45°C° 0 mm 8 m/s 746 mmHg 25%
15:00 +45°C° 0 mm 8 m/s 746 mmHg 25%
16:00 +42°C° 0 mm 6 m/s 746 mmHg 30%
17:00 +40°C° 0 mm 5 m/s 747 mmHg 34%
18:00 +37°C° 0 mm 4 m/s 747 mmHg 39%
19:00 +37°C° 0 mm 3 m/s 747 mmHg 41%
20:00 +36°C° 0 mm 2 m/s 747 mmHg 43%
21:00 +34°C° 0 mm 1 m/s 747 mmHg 45%
22:00 +34°C° 0 mm 1 m/s 747 mmHg 43%
23:00 +34°C° 0 mm 1 m/s 747 mmHg 41%
Mostrar mais